Wind_Speed
1 2 4 5 5 6 6 6 7 7 6 7 7 8 8 7 7 7 6 6 6 6 6 7 6 5 4 4 5 5 5 4 4 5 5 5 4 3 3 2 2 2 1 1 1 1 1 1 2 2 1 1 1 1 2 2 2 2 2 2 2 2 3 3 3 3 3 4 4 4 5 5 6 7 7 7 8 8 9 9 10 10 11 11 11
3 3 3 4 5 6 6 7 8 8 8 8 9 9 9 9 8 8 8 8 8 7 7 7 7 7 6 6 6 6 5 4 4 5 6 5 5 5 5 5 5 5 4 3 3 3 3 3 3 3 3 2 2 3 3 3 3 3 3 3 3 3 3 4 4 4 5 5 5 6 6 7 7 8 8 8 9 9 10 10 11 11 12 12 13
7 6 5 5 6 6 7 7 8 9 9 10 11 11 11 10 9 9 10 9 9 8 8 7 8 8 8 7 7 6 6 5 4 5 5 5 4 5 6 7 7 7 7 5 5 4 4 4 4 5 4 4 4 4 4 4 4 4 4 4 4 5 5 5 6 6 7 7 7 7 8 8 9 9 9 10 10 10 11 11 11 12 12 13 13
10 9 8 7 7 7 7 8 9 9 10 11 12 12 12 12 11 11 11 11 10 10 9 8 8 9 9 9 8 7 7 6 5 5 5 5 4 4 6 7 8 8 9 8 7 6 6 6 6 6 6 6 6 6 6 6 6 5 5 5 5 6 6 6 7 7 8 8 8 8 8 9 9 9 10 10 11 11 11 12 12 12 13 13 13
12 11 11 10 9 8 8 8 9 9 10 11 12 13 13 12 12 12 12 12 12 11 10 10 9 9 10 10 9 8 8 7 6 6 6 6 6 5 6 7 8 8 9 10 9 8 8 8 7 7 7 7 7 7 7 7 7 7 6 6 6 6 7 7 7 7 8 8 8 8 8 9 9 9 10 10 11 11 11 12 12 13 13 13 13
14 13 13 13 12 11 9 8 8 9 10 11 12 13 14 14 13 13 14 14 13 12 12 11 11 11 11 11 10 8 8 8 7 8 8 9 9 7 7 7 8 9 9 10 10 10 9 9 9 8 8 8 8 8 8 8 8 8 7 7 6 6 7 7 7 7 8 8 8 9 9 9 10 10 10 10 11 11 12 12 13 13 13 13 13
15 15 15 15 14 14 13 12 10 10 11 11 12 13 15 16 15 15 15 15 14 13 13 13 12 12 12 12 11 10 9 9 9 10 10 10 11 10 9 8 9 10 11 11 11 11 10 10 10 9 9 9 9 9 9 9 8 7 7 7 7 7 7 7 7 8 8 9 9 9 10 10 10 10 10 10 11 11 11 12 12 13 13 13 13
17 16 16 16 15 16 16 15 13 12 13 13 14 14 15 17 17 17 17 16 16 15 14 14 13 13 13 13 12 11 11 10 10 11 11 12 12 13 12 11 10 10 11 11 12 12 11 10 10 10 9 9 9 8 8 8 7 7 7 7 7 7 7 7 7 8 8 9 9 9 9 10 10 10 10 10 10 10 10 11 11 12 12 13 13
19 17 17 17 16 17 18 18 16 14 15 15 16 15 15 17 19 18 18 17 17 16 16 15 14 14 14 14 13 12 12 12 12 12 13 14 13 13 13 13 11 9 9 10 10 11 11 10 10 9 8 7 8 7 7 7 8 8 8 8 7 7 6 6 6 7 8 8 9 9 9 10 10 10 10 10 10 10 11 11 12 12 13 13 14
20 19 19 18 18 17 18 19 18 17 17 17 17 18 17 17 19 20 19 19 18 18 18 17 16 15 15 15 15 14 14 14 14 14 14 15 15 15 14 14 11 9 8 8 9 10 10 10 10 9 7 7 7 8 8 8 9 9 8 8 7 6 5 6 6 7 7 8 8 9 9 10 10 10 10 10 11 12 12 13 13 14 14 14 14
21 21 21 21 19 18 18 18 19 19 19 18 19 19 19 18 20 21 20 20 20 19 19 18 17 17 17 17 16 16 16 15 16 16 16 15 15 14 15 14 11 9 8 8 9 9 10 10 10 9 8 8 8 9 10 10 9 9 8 7 6 6 6 6 6 7 7 7 8 8 9 9 10 10 11 11 12 13 14 14 15 15 15 15 15
22 22 22 22 22 20 19 19 19 19 20 20 20 20 20 20 20 21 21 21 21 21 20 19 18 18 18 18 17 17 17 17 17 18 18 16 14 13 13 13 12 10 9 8 8 9 10 11 11 10 10 9 10 10 10 9 9 8 8 7 6 7 7 7 7 7 7 7 8 8 9 9 9 10 10 11 12 13 14 15 16 16 16 16 15
23 23 23 24 23 23 22 21 20 19 20 21 21 21 22 22 21 22 22 22 22 22 21 19 19 20 20 19 19 19 18 17 18 19 19 18 15 13 12 13 12 10 9 9 9 9 10 11 11 11 11 11 11 11 10 9 9 9 8 8 8 8 7 7 6 7 7 7 8 8 8 9 9 9 10 11 11 12 14 16 17 17 17 17 16
25 25 24 24 24 24 24 23 21 19 20 21 22 22 23 22 22 22 23 23 23 24 22 21 21 21 20 19 19 20 19 18 18 18 18 18 16 14 13 13 13 11 10 10 10 10 11 11 12 11 11 12 11 10 9 8 9 9 9 9 9 8 8 7 7 7 8 8 9 9 9 9 10 11 11 12 12 13 14 15 16 17 18 18 17
27 27 25 25 26 26 24 24 22 20 20 21 22 23 23 23 22 22 23 23 24 25 24 22 22 22 20 20 20 20 19 20 19 18 18 18 16 15 14 14 13 11 10 11 11 11 11 12 12 12 11 12 10 8 8 9 9 9 9 9 9 10 9 9 8 9 9 9 10 10 10 12 12 13 13 13 13 14 14 15 15 16 17 17 17
29 28 27 28 27 26 25 26 26 23 21 21 22 24 25 24 23 23 23 23 24 25 25 23 23 22 21 20 21 20 20 21 20 19 17 17 17 16 16 15 13 11 10 11 12 11 11 12 13 12 12 12 10 8 8 9 9 9 9 10 10 11 10 9 9 9 10 11 11 11 13 14 14 13 13 13 14 14 14 14 15 16 16 16 16
31 31 30 28 26 26 26 28 28 27 24 22 22 24 26 26 25 24 24 24 24 25 26 25 24 24 22 21 21 21 21 22 21 19 18 17 17 18 18 16 14 12 12 13 13 12 12 12 12 12 12 13 12 10 10 10 10 10 10 10 11 12 11 10 10 11 12 13 13 13 14 14 13 13 14 14 14 14 15 15 15 15 15 15 15
31 33 33 29 27 27 27 27 29 28 26 24 23 24 26 27 28 26 25 25 26 25 26 26 25 25 24 23 22 22 22 22 21 20 20 18 17 19 19 18 15 14 13 14 14 13 12 12 12 13 13 14 14 13 13 11 10 11 11 11 12 13 12 12 11 12 13 13 13 14 14 13 12 13 14 15 15 15 15 15 15 14 15 15 14
28 32 33 32 30 29 27 27 29 29 29 27 25 25 25 27 29 28 27 27 27 26 27 28 26 25 25 24 23 23 23 22 21 21 21 19 18 19 20 19 17 15 15 15 15 14 13 12 13 14 14 15 15 15 14 12 11 12 12 12 12 12 12 12 11 11 12 13 13 14 13 13 13 13 14 15 15 15 15 14 14 13 14 14 14
27 28 29 31 31 31 31 30 30 31 30 29 28 27 26 27 29 30 29 29 29 28 28 29 28 26 26 25 24 24 24 23 22 22 20 19 19 21 22 21 18 16 16 15 15 14 13 13 14 15 16 16 16 15 15 14 13 13 13 13 12 12 12 12 12 11 12 13 13 14 14 14 13 13 13 14 14 15 14 13 12 12 12 13 12
28 27 25 28 30 30 32 33 33 34 33 32 31 30 29 28 29 30 31 31 30 30 29 30 30 28 26 26 26 26 25 24 23 23 21 21 21 22 23 21 19 17 17 16 15 15 14 14 16 17 18 18 17 16 15 15 15 15 14 14 14 14 13 13 12 12 12 13 13 14 14 14 14 14 14 13 13 14 14 13 11 11 11 11 11
28 27 23 24 27 28 30 32 34 35 35 34 33 32 32 30 29 30 31 31 31 31 30 31 32 30 28 26 26 27 26 25 24 24 23 22 23 24 24 22 20 19 18 17 16 16 16 17 18 19 20 19 17 16 16 17 17 16 15 15 15 15 15 14 13 13 13 13 14 14 14 14 14 14 14 13 13 13 13 12 11 10 10 10 9
27 27 24 23 24 26 28 30 33 34 35 36 35 34 33 32 31 31 31 32 32 32 31 31 32 32 30 28 27 28 27 26 26 26 25 23 24 25 25 23 20 20 20 19 18 19 19 19 20 20 20 19 18 18 18 18 18 18 17 16 16 16 16 16 15 14 14 15 15 15 15 15 15 15 14 14 13 13 12 12 11 10 9 9 9
25 26 26 25 23 24 25 28 31 33 34 34 34 35 37 36 34 33 33 34 34 33 32 31 32 33 32 31 29 29 28 27 27 27 26 25 25 25 26 24 21 21 22 20 20 21 21 20 21 21 20 20 20 19 19 19 19 19 18 17 17 17 18 18 17 16 16 16 16 16 16 16 15 15 14 13 13 13 12 12 12 11 10 9 9
25 25 26 26 25 24 24 25 27 30 32 32 33 36 37 37 37 36 36 36 36 35 33 32 32 33 34 33 31 30 29 29 29 28 27 26 25 25 27 26 23 23 23 21 21 22 22 21 21 22 22 22 22 21 21 20 20 20 19 19 19 18 19 19 19 18 18 18 17 17 18 18 17 15 14 13 13 12 12 12 12 11 10 9 9
25 26 27 28 27 27 26 26 26 28 29 29 33 36 37 38 39 39 37 35 36 35 34 33 33 33 34 34 33 31 30 30 30 29 28 28 26 26 28 29 26 25 23 23 23 23 23 23 23 23 23 24 24 23 23 23 22 22 21 21 21 20 20 20 20 20 20 19 19 19 19 19 18 17 15 13 13 12 12 12 12 11 11 10 10
26 27 28 29 29 28 29 28 28 29 29 28 31 35 39 41 38 35 33 32 33 33 32 32 32 32 34 34 34 32 32 31 31 30 29 28 28 27 29 30 29 26 25 24 24 24 24 25 25 24 25 26 26 26 25 25 24 24 23 23 23 22 21 21 22 22 21 20 20 20 20 20 19 18 16 14 13 13 13 13 12 12 12 11 12
27 27 28 29 30 30 31 31 31 31 31 31 31 34 38 38 33 31 31 31 31 31 32 33 33 32 33 34 34 33 33 33 32 31 30 29 29 28 29 30 29 28 27 26 25 25 26 26 26 26 26 27 28 28 27 26 26 25 25 25 25 23 22 23 23 23 22 21 22 22 22 21 20 19 17 16 15 15 15 14 13 13 13 13 13
29 29 29 29 30 31 32 33 33 33 33 33 33 34 36 34 31 30 32 32 32 31 32 34 34 33 33 33 33 33 33 34 34 32 31 30 29 29 29 29 30 30 29 28 27 27 28 28 27 28 28 28 29 29 28 27 26 26 27 27 25 24 24 24 24 24 23 23 23 23 23 22 21 20 19 18 17 16 16 16 15 14 15 14 14
31 31 31 31 32 32 33 34 34 35 35 36 36 36 36 33 31 32 34 36 35 33 33 34 34 35 34 32 33 33 33 34 35 34 33 32 30 30 30 30 30 30 30 30 28 28 30 30 29 30 29 30 29 29 28 27 27 28 28 27 26 25 25 25 25 25 24 24 24 24 24 23 23 22 20 20 19 18 17 17 16 16 16 16 16
32 33 33 33 34 34 34 34 35 36 36 37 38 38 37 34 33 33 34 37 38 36 35 35 35 36 35 34 33 33 33 34 35 35 34 33 32 31 30 30 30 30 31 31 29 29 31 32 31 31 30 30 29 28 29 28 28 28 28 27 26 26 26 26 26 26 25 26 26 25 25 24 24 23 22 20 20 19 18 18 17 18 18 18 18
33 33 34 34 35 36 36 36 36 37 38 38 39 39 38 37 35 34 34 37 39 39 38 36 36 36 36 35 34 34 34 34 33 34 34 33 33 32 31 31 31 31 31 31 29 29 33 34 33 33 31 30 29 29 29 29 29 29 28 28 27 27 27 27 27 27 27 27 26 26 26 25 24 24 23 21 20 20 19 19 19 19 19 20 20
34 34 34 34 35 36 37 38 38 38 39 39 39 39 40 39 37 35 36 38 39 40 40 38 37 36 35 35 35 35 35 35 33 33 33 34 33 33 33 32 32 32 32 32 31 30 33 35 36 35 33 31 29 29 30 30 29 29 28 28 28 28 28 28 28 28 28 27 26 26 26 26 25 24 24 23 22 21 20 20 21 21 21 21 21
35 35 35 36 36 36 37 39 40 40 40 41 41 40 41 41 38 37 38 38 38 40 42 40 39 38 37 36 35 35 36 36 35 34 33 33 34 34 34 33 33 33 34 34 33 32 33 35 37 36 34 31 30 29 30 30 29 29 28 28 28 29 29 29 28 28 28 27 27 27 27 26 26 25 24 24 23 22 22 22 22 22 22 22 22
37 37 37 37 37 37 38 39 40 41 41 41 42 41 41 41 40 38 38 38 38 39 42 42 41 40 39 38 37 37 37 36 35 34 34 33 34 35 35 35 35 34 35 35 35 33 33 35 37 36 34 32 30 30 30 30 29 29 29 29 29 29 29 29 28 28 27 27 27 28 28 27 26 25 25 25 24 24 23 24 24 24 24 24 24
38 38 39 39 39 40 40 40 41 42 42 41 42 42 41 42 42 40 39 39 38 39 41 42 42 42 41 40 39 39 39 37 35 35 34 34 35 35 35 36 36 36 36 36 36 35 34 35 36 36 34 33 31 31 31 30 30 29 29 29 29 29 29 29 28 28 27 27 28 28 28 27 26 25 25 25 25 25 25 25 25 26 25 25 26
40 40 40 40 41 42 42 42 42 43 43 42 42 42 42 42 42 42 41 40 39 39 40 41 43 44 42 41 41 41 41 39 36 35 35 34 35 35 36 36 36 36 37 37 36 35 34 34 34 35 34 32 31 30 30 30 30 29 29 29 28 28 29 29 28 27 27 28 28 28 28 28 27 26 26 25 25 25 26 27 27 27 27 27 28
42 41 41 42 42 43 44 44 44 44 44 44 43 42 42 42 42 42 43 42 40 39 40 41 43 45 44 42 41 42 42 40 39 37 36 36 36 36 36 35 36 36 37 36 36 35 34 33 34 33 32 31 30 30 30 30 30 29 29 29 29 29 31 30 28 28 28 29 29 29 29 29 28 27 27 26 26 26 27 28 29 29 29 29 29
43 43 43 43 44 44 45 46 46 46 45 45 43 43 43 43 42 43 43 44 42 40 40 41 43 45 45 43 42 43 43 42 40 39 38 37 37 37 36 36 36 37 36 35 34 34 34 34 33 32 31 32 31 31 31 31 30 30 31 32 32 32 32 31 29 29 31 32 32 31 31 31 29 28 27 27 27 28 29 30 31 30 30 30 30
44 45 45 45 45 46 46 47 47 47 47 45 44 44 44 44 44 44 44 45 45 43 41 42 43 45 45 44 43 43 43 42 42 41 40 39 38 38 37 37 37 36 35 34 34 34 34 34 33 32 32 33 32 32 33 33 32 33 34 34 34 33 33 32 31 32 32 33 32 31 31 31 31 30 29 29 29 30 30 31 31 31 31 31 31
45 46 47 47 47 47 48 48 49 48 47 46 44 44 45 45 45 45 45 45 46 45 43 42 43 44 45 45 44 43 43 43 43 42 41 41 40 39 38 38 37 36 34 34 34 35 35 34 33 33 34 34 33 34 34 34 34 35 36 35 34 35 35 34 33 33 33 33 33 32 32 32 32 32 32 32 32 32 32 32 32 32 31 32 32
47 47 47 48 48 48 49 49 49 48 46 45 45 45 46 46 46 46 46 46 47 46 45 44 43 44 45 46 45 44 43 43 43 42 42 41 41 40 39 39 38 37 35 35 35 35 35 34 34 35 35 35 34 35 35 36 37 37 36 36 36 37 36 35 34 34 34 34 34 33 33 33 33 34 35 34 34 34 33 33 33 33 33 33 34
48 48 48 48 49 49 50 49 48 47 45 45 46 47 48 48 48 47 47 47 48 47 47 45 44 44 45 46 46 45 44 44 44 43 43 43 42 41 40 40 39 38 37 37 36 36 36 36 36 36 36 35 36 36 36 37 39 39 39 40 39 38 37 37 37 37 37 37 36 35 35 35 35 36 36 36 36 35 34 34 34 34 34 35 36
48 49 49 49 49 49 49 48 47 46 46 46 48 49 49 49 50 49 48 48 48 48 47 46 45 45 46 46 47 46 45 45 44 45 45 44 42 41 40 41 41 40 39 38 38 38 38 38 37 37 36 37 37 38 37 39 41 42 42 42 41 39 39 39 40 40 40 38 37 36 36 37 37 37 37 37 37 36 36 35 35 35 35 35 36
48 48 48 49 48 48 48 48 47 47 46 46 48 49 49 49 50 50 49 48 48 48 48 47 47 46 46 46 47 47 46 45 46 46 45 44 44 44 44 44 44 42 40 39 39 39 39 38 38 36 37 39 40 39 39 41 44 43 41 41 41 41 40 39 40 41 40 39 37 37 37 37 37 38 38 38 38 37 37 36 36 35 35 35 36
47 47 47 47 47 48 48 48 48 46 45 44 46 47 47 47 49 50 49 48 47 47 48 48 48 47 46 45 47 47 47 47 46 45 44 44 46 47 48 48 45 42 41 40 39 38 38 39 39 37 38 41 42 43 44 45 44 42 39 40 41 42 42 40 39 40 40 39 39 38 37 36 37 39 40 39 39 39 38 37 36 35 35 35 36
45 45 46 47 47 47 47 47 46 44 43 44 45 46 46 47 47 48 49 48 47 46 47 48 48 47 46 46 46 47 48 47 46 45 45 46 48 50 49 47 43 41 42 42 40 40 40 41 41 41 41 44 45 47 48 47 45 42 40 40 41 42 42 40 40 40 40 39 38 38 39 39 40 42 42 40 40 40 39 38 36 35 35 36 37
45 46 46 45 44 44 44 44 45 44 42 43 44 45 45 46 47 47 47 47 47 46 46 47 48 48 47 46 46 47 48 47 45 45 46 48 50 50 47 44 41 40 41 41 42 43 44 44 44 45 45 47 47 48 49 49 47 44 41 41 43 43 42 42 42 41 39 39 39 40 40 41 41 42 42 41 41 41 39 38 37 36 36 37 38
44 44 43 42 41 42 43 43 44 43 40 40 41 42 43 44 46 46 45 46 46 45 45 46 47 48 47 46 46 47 48 47 45 46 48 50 51 49 45 43 42 41 40 40 41 44 46 47 47 48 48 48 48 49 49 48 47 46 44 42 43 44 44 44 43 41 40 40 41 40 40 40 40 41 41 41 40 39 38 37 36 36 37 38 40
41 41 41 40 41 41 42 41 41 39 37 36 37 39 41 43 45 45 44 44 45 45 45 46 47 47 47 47 47 47 47 46 46 48 50 51 51 49 45 43 43 41 39 39 40 43 46 48 49 48 48 49 49 50 50 49 48 49 48 45 45 47 47 45 42 42 41 41 40 39 40 40 41 41 41 39 38 38 37 37 37 37 38 40 42
39 39 40 40 40 40 40 38 37 36 35 34 35 37 38 41 44 44 43 43 43 44 44 45 46 47 47 47 48 48 47 46 47 50 51 51 51 49 45 43 43 39 37 39 42 43 45 48 49 49 50 50 51 52 52 52 50 49 50 48 47 48 47 43 42 42 41 40 39 40 41 42 42 40 39 38 38 37 37 37 38 38 40 42 45
Wind_Direction
169 188 200 205 208 210 214 222 227 230 236 243 247 247 246 245 247 253 254 259 266 263 257 260 265 258 240 247 251 237 224 215 224 240 251 260 270 278 289 293 286 280 220 170 184 201 218 222 221 224 226 224 213 208 206 204 202 199 204 212 220 228 237 247 255 263 269 274 277 277 278 280 281 282 283 285 286 289 292 294 296 298 298 297 296
298 258 230 222 218 216 218 224 227 228 231 238 245 246 246 245 245 251 254 257 261 260 253 249 251 252 246 243 248 249 239 226 232 245 250 260 272 279 285 287 281 274 262 247 241 240 244 248 250 249 245 249 254 255 253 251 250 251 251 253 256 258 262 266 269 272 272 273 275 277 279 282 283 285 287 287 289 292 294 295 295 295 295 295 295
300 281 257 243 232 224 222 224 226 228 230 233 240 243 243 243 244 248 252 254 257 260 257 246 242 246 247 245 245 249 249 240 240 252 256 257 271 280 282 284 283 276 267 257 249 246 246 246 248 251 251 250 255 261 267 272 275 276 278 280 281 281 279 278 278 279 279 280 281 283 285 287 289 291 292 292 293 295 295 295 295 296 296 297 298
294 285 272 259 245 232 227 226 227 228 230 233 238 241 242 242 244 247 250 252 251 253 256 250 243 245 250 252 245 245 253 250 244 251 258 255 259 272 277 279 280 278 273 265 255 248 246 244 244 249 255 256 258 262 267 272 275 278 282 284 286 285 283 281 280 280 281 283 284 286 289 291 292 293 294 296 296 296 296 296 296 296 297 298 298
285 286 282 275 266 250 235 232 235 235 234 236 239 242 244 244 244 247 247 249 249 248 250 250 246 245 251 257 252 247 256 258 252 253 255 253 246 246 265 276 280 280 277 271 263 254 247 245 243 245 252 258 261 263 266 269 273 277 281 283 285 284 283 281 281 282 283 285 287 290 292 295 296 297 297 299 299 298 298 298 299 300 301 301 300
274 278 280 281 281 275 262 249 247 249 247 244 242 242 246 247 247 248 247 247 249 247 247 247 247 247 248 253 254 250 254 259 257 254 254 258 253 243 245 263 274 276 275 273 267 259 251 245 243 243 247 254 259 262 266 270 273 276 278 281 282 282 283 285 287 289 291 294 296 297 299 300 300 300 301 301 300 301 301 302 303 304 304 303 302
269 267 268 272 275 276 274 269 262 261 260 256 251 245 244 247 247 247 248 248 250 250 248 246 246 248 248 249 252 251 250 252 254 254 256 260 263 259 246 245 258 267 269 268 267 264 257 249 246 245 246 250 256 260 262 265 266 268 271 275 277 279 283 287 291 295 298 300 301 302 303 302 302 302 303 303 304 304 306 307 307 307 305 303 301
273 268 264 264 265 267 271 272 269 267 267 264 260 253 245 244 245 244 246 248 250 252 251 249 246 248 251 251 251 251 250 248 249 253 259 261 264 267 262 256 256 260 265 265 266 266 261 254 250 247 247 250 253 254 257 259 261 264 268 271 272 274 277 283 290 296 301 303 305 307 308 307 306 306 306 307 308 309 309 309 307 304 301 299 298
281 278 272 267 265 266 269 272 272 271 269 266 264 259 250 244 244 243 244 247 249 251 252 252 251 250 252 255 255 253 253 252 251 252 258 262 264 266 268 267 261 255 258 262 264 264 261 257 251 246 245 250 254 256 259 262 266 268 269 267 267 269 275 284 292 298 302 304 308 310 311 309 308 309 310 312 313 312 311 307 301 297 295 294 295
283 283 281 276 271 268 268 269 271 271 267 264 264 262 256 249 245 244 243 245 247 249 250 252 253 253 253 255 256 257 257 258 259 258 259 263 266 265 265 266 260 250 249 255 260 261 262 259 254 248 246 254 265 272 274 274 274 272 269 267 268 275 283 288 293 297 301 305 309 311 309 306 305 307 310 313 314 312 309 303 296 293 293 294 296
279 281 281 280 278 274 270 267 268 269 266 262 260 260 259 253 247 245 245 245 246 248 249 251 252 254 255 256 257 258 260 261 263 266 268 269 269 265 262 261 258 252 249 251 255 260 261 260 258 257 257 262 269 275 279 281 280 274 270 271 276 282 284 286 290 294 298 303 310 313 311 306 304 305 308 311 313 310 305 299 294 293 294 294 294
274 277 279 280 281 280 275 271 268 266 266 263 260 259 258 254 247 244 246 247 247 247 248 251 253 255 257 259 260 260 260 261 263 267 272 277 276 265 255 253 255 256 255 254 256 260 262 262 263 264 265 266 268 271 275 278 278 273 271 273 276 277 279 283 287 288 290 298 307 314 313 306 303 304 307 309 309 307 303 300 297 296 295 293 294
271 272 275 277 279 279 277 274 268 262 260 261 261 260 258 255 248 243 243 246 249 249 248 249 252 255 257 260 262 262 261 260 261 265 270 274 276 265 248 244 248 252 256 259 260 261 263 266 268 270 270 270 271 271 272 274 275 273 272 273 275 276 278 283 286 289 293 301 309 311 306 302 303 305 307 307 306 304 303 303 302 301 298 296 297
269 269 269 271 273 273 272 269 264 257 253 255 258 260 260 257 252 245 242 244 249 251 249 247 249 252 257 260 262 264 264 263 261 262 265 267 268 260 245 240 241 243 250 258 262 263 265 268 270 272 273 274 273 270 271 274 276 275 275 277 280 278 278 282 289 297 305 308 305 301 301 306 311 312 311 308 305 303 303 303 302 300 298 297 297
268 267 267 266 264 264 264 265 265 260 255 255 258 260 261 259 255 250 245 244 248 251 250 248 249 251 253 257 260 263 264 264 262 261 261 263 262 254 245 241 241 241 247 255 261 265 268 272 273 272 270 270 270 269 269 270 271 275 277 278 279 278 277 280 288 298 306 305 300 298 304 309 311 311 310 308 305 302 301 300 298 296 296 296 297
268 267 265 263 264 266 266 266 269 268 264 262 261 263 264 263 259 253 249 246 247 250 251 250 250 251 251 252 256 260 262 262 263 262 259 259 258 251 246 245 244 245 250 255 259 263 267 272 276 276 273 270 269 268 266 265 269 274 275 276 279 282 283 284 289 298 302 300 299 301 305 305 306 308 309 308 306 303 300 297 293 291 292 295 297
271 269 266 264 266 268 266 265 266 269 268 265 263 264 266 267 264 257 252 249 248 249 251 252 251 251 250 251 253 255 257 259 262 263 261 258 254 249 247 248 249 250 253 257 260 264 266 269 271 270 270 270 269 264 260 263 272 276 276 279 283 286 289 291 294 298 298 297 298 299 301 303 307 311 312 311 309 304 300 297 293 292 294 297 299
273 272 270 268 265 264 263 263 265 266 266 264 263 264 266 268 267 263 257 253 249 249 251 252 250 250 251 250 251 252 254 257 259 261 261 258 250 246 247 248 249 250 253 258 261 264 266 269 268 264 262 264 266 264 262 264 272 275 279 284 287 288 291 293 295 296 295 296 297 298 301 307 312 315 315 313 308 303 299 297 296 296 297 298 300
273 271 271 270 268 266 266 265 265 265 264 263 263 262 263 266 268 266 262 258 253 250 252 251 249 250 251 250 249 249 252 254 255 257 258 257 251 244 244 246 248 248 251 256 259 262 265 267 267 264 261 262 264 266 267 269 270 274 280 285 288 289 289 290 292 294 296 298 300 302 308 313 315 315 313 310 306 300 297 296 295 295 295 296 297
274 270 270 271 269 267 267 267 267 267 266 265 263 261 259 261 264 265 264 261 256 252 252 252 250 250 250 250 249 249 249 251 253 254 255 255 250 243 242 244 247 249 250 253 259 264 267 267 266 264 262 263 263 265 269 271 270 271 275 279 281 283 285 287 290 292 295 299 303 307 312 312 311 309 308 306 302 297 295 292 291 291 291 291 291
276 272 270 271 270 265 263 264 265 265 266 266 265 263 261 258 258 261 262 261 258 254 253 253 253 252 250 250 250 250 249 248 250 252 251 250 247 242 241 243 247 250 252 254 259 264 266 266 265 264 263 264 264 264 266 267 266 266 269 272 274 278 282 286 289 291 294 299 304 307 309 309 307 304 301 299 296 293 291 290 290 288 287 285 287
284 281 276 273 271 268 265 263 263 263 263 263 263 263 263 261 259 259 261 261 259 256 254 255 255 255 252 250 250 251 249 247 248 249 248 247 246 242 240 242 246 250 254 257 259 261 263 263 261 261 262 263 263 263 263 263 264 265 266 268 271 276 281 285 288 291 295 299 302 304 306 307 305 302 298 297 294 291 289 289 290 287 283 283 287
290 290 287 278 274 273 271 268 265 263 261 260 261 262 263 263 262 260 260 260 259 256 254 255 256 257 255 252 250 250 249 248 247 248 248 246 245 243 240 239 242 248 252 254 258 260 260 260 260 260 261 262 261 260 260 261 264 266 266 266 270 276 281 283 286 291 295 298 301 304 304 303 302 299 296 295 294 291 290 291 289 285 282 285 292
289 290 288 283 277 274 272 271 269 267 264 263 262 261 260 260 260 258 257 257 257 255 252 252 254 256 256 254 250 250 251 250 249 248 248 247 245 243 242 238 236 241 247 250 253 257 259 261 262 262 262 263 263 262 262 262 263 264 265 268 271 276 279 282 285 289 293 296 300 304 304 301 298 297 295 293 292 291 290 288 286 284 285 288 293
286 286 287 286 282 277 272 270 269 269 268 267 265 263 261 260 259 255 254 255 255 253 251 249 250 253 255 254 251 250 251 251 250 249 248 248 246 243 243 240 235 235 241 245 249 254 259 262 263 263 263 263 264 265 264 264 265 266 268 271 274 277 280 283 286 289 291 294 299 303 303 301 297 296 294 292 291 290 285 282 282 283 286 288 289
286 285 285 286 287 284 280 275 271 268 266 265 263 263 260 257 255 254 255 255 254 253 252 250 249 250 252 253 251 249 249 250 251 250 249 248 246 243 241 241 238 236 237 239 244 250 256 261 262 263 263 262 262 263 264 265 267 269 272 274 276 278 281 284 286 288 290 293 296 299 301 300 296 295 294 291 290 287 280 276 278 281 283 283 282
286 286 286 287 288 288 286 283 279 274 270 265 261 259 257 256 258 262 265 265 262 261 262 260 257 255 254 254 252 250 249 249 250 250 249 248 246 244 241 241 241 240 238 238 241 247 253 258 260 262 261 261 261 261 262 264 267 270 273 274 275 278 281 283 284 286 288 291 293 295 297 299 295 293 292 290 288 286 281 278 278 279 279 277 276
285 286 287 288 289 289 288 287 284 281 278 273 268 264 263 265 270 274 273 270 265 263 264 265 264 261 258 257 256 254 252 251 251 251 250 248 247 245 243 242 242 242 242 241 242 246 250 254 257 258 259 259 259 259 260 262 265 268 270 271 272 276 278 280 281 284 286 289 290 290 293 296 295 293 292 291 287 286 285 283 281 280 279 276 274
284 285 287 288 289 289 288 287 285 283 281 278 276 273 271 272 274 271 267 263 258 255 255 257 260 259 256 256 258 258 256 254 252 252 252 250 248 246 245 244 243 242 243 243 243 245 249 252 253 254 255 256 255 256 256 258 262 264 266 268 271 273 275 277 279 282 285 287 287 288 290 293 295 296 296 294 292 289 287 286 284 282 280 277 275
285 285 285 286 287 288 287 287 285 284 281 279 277 276 276 274 270 265 263 261 256 253 252 252 254 255 252 251 254 256 256 255 253 252 252 252 250 248 246 245 244 243 243 244 244 246 248 250 251 251 252 253 254 254 254 256 259 261 264 267 269 272 275 277 279 282 284 286 286 287 288 291 295 297 298 296 295 292 288 286 284 281 280 278 276
284 283 283 284 285 286 286 286 286 284 282 279 276 275 275 274 269 264 262 261 258 254 252 252 252 253 254 253 253 253 253 253 253 252 252 253 253 251 247 246 245 244 243 244 244 246 248 248 248 250 251 253 254 254 254 256 258 260 263 266 268 272 275 278 280 283 284 284 285 286 288 289 292 295 296 294 292 290 286 283 281 279 277 276 275
280 279 279 280 281 283 284 285 285 285 283 279 275 273 271 271 270 266 261 259 258 254 252 252 252 253 255 257 257 256 253 251 251 252 252 252 253 253 250 247 246 246 245 244 243 245 248 248 248 248 249 251 253 255 256 257 259 261 263 267 270 274 276 278 281 282 282 283 283 285 287 288 289 291 293 291 287 284 281 279 277 276 275 274 275
279 278 278 277 278 281 283 284 284 285 284 280 275 271 268 267 268 267 262 258 257 257 254 252 252 253 254 256 257 258 256 253 251 250 250 250 250 251 251 249 247 247 246 245 242 242 246 250 250 249 248 249 252 256 258 258 260 262 266 270 273 275 276 277 278 279 279 281 282 284 285 286 287 289 292 291 285 281 279 278 277 277 276 275 276
280 279 278 278 278 279 281 282 282 283 283 281 277 272 267 265 264 265 264 259 257 257 256 252 251 252 251 251 253 254 255 254 253 250 248 247 247 247 248 249 248 246 245 245 243 241 243 248 251 251 251 252 254 257 259 259 260 263 267 269 272 274 275 276 277 278 279 280 282 284 284 286 287 288 291 291 287 281 279 280 281 281 279 279 278
281 280 279 279 278 279 280 281 281 282 282 281 277 273 268 264 261 261 263 261 256 254 255 253 251 251 251 250 249 250 251 251 252 251 249 246 244 244 245 246 247 247 246 245 244 242 242 246 250 253 254 255 256 258 260 260 261 263 265 268 270 271 273 275 276 277 278 281 282 283 284 285 286 287 289 290 288 283 280 281 284 285 283 282 281
280 280 280 279 279 280 281 281 282 282 282 280 277 273 268 264 260 258 259 261 258 253 252 253 251 250 251 251 249 250 250 248 248 249 250 248 246 244 244 245 246 246 247 246 245 245 245 247 251 254 255 256 256 257 259 260 261 263 266 268 270 272 274 274 275 277 279 281 281 281 283 284 285 286 287 289 288 285 282 282 285 286 286 285 283
281 281 280 280 280 280 282 282 283 283 282 280 276 272 268 265 261 257 256 258 258 255 251 250 251 249 249 249 249 249 250 249 246 246 248 249 248 246 244 244 245 246 247 248 248 249 249 250 253 255 257 258 258 258 258 260 262 265 268 270 271 272 273 275 277 281 282 281 279 280 282 284 284 284 285 287 288 285 283 283 285 286 287 286 285
281 281 281 280 279 280 281 282 283 282 281 279 275 270 266 264 261 258 255 254 256 255 252 248 248 249 248 247 247 247 248 249 248 247 246 247 248 247 246 245 245 245 247 249 251 252 253 254 255 257 259 260 260 261 262 263 266 268 270 270 270 270 273 277 281 282 281 281 281 282 283 284 283 282 283 284 285 284 283 283 284 285 287 287 287
280 281 281 280 279 279 281 282 282 281 280 277 273 269 265 262 260 258 255 253 253 254 253 249 247 247 247 246 245 246 247 248 248 248 247 247 247 247 247 247 246 245 246 248 250 252 253 254 256 258 259 260 262 264 266 267 268 269 269 269 270 272 276 279 280 281 281 282 282 282 282 282 281 280 280 282 283 283 282 282 283 284 286 287 288
279 280 280 280 279 280 281 282 281 281 279 276 272 268 265 261 259 256 254 253 252 252 252 250 247 246 246 245 244 244 246 247 248 248 247 246 247 246 246 246 247 247 248 248 249 250 251 253 255 257 258 261 262 264 265 267 269 269 269 270 274 277 278 278 280 282 282 282 282 283 281 281 280 279 278 279 280 281 281 281 281 283 285 287 287
279 280 280 280 280 281 281 281 281 280 278 275 271 268 265 262 259 256 254 252 251 250 250 250 248 246 245 245 244 244 245 246 246 247 247 247 247 247 247 247 247 248 249 250 251 252 253 254 255 257 259 262 263 264 265 268 270 270 271 273 276 276 276 278 281 282 281 281 282 282 281 280 280 279 278 278 279 280 281 282 282 283 284 286 287
280 280 280 280 280 280 280 280 279 278 276 273 271 268 266 263 260 256 253 251 250 249 248 248 248 246 244 244 243 243 244 244 244 245 247 248 248 248 249 250 250 250 249 250 251 253 255 256 256 258 259 262 263 265 267 268 270 270 272 273 273 274 275 278 280 281 281 280 280 280 280 280 279 279 279 279 279 280 280 281 282 283 284 286 287
280 280 280 280 280 280 279 279 278 276 274 272 270 268 266 264 261 257 254 251 250 248 247 246 247 247 244 243 242 242 242 243 243 243 245 247 248 250 251 252 253 253 252 251 251 252 253 254 255 257 259 260 262 263 265 267 268 269 269 269 270 271 274 276 278 279 279 279 281 282 282 280 279 279 279 279 280 280 280 280 281 282 284 286 287
280 280 280 280 280 280 279 278 277 275 274 273 271 269 266 264 262 259 254 251 249 248 247 245 245 246 245 242 241 241 241 241 242 244 244 245 247 248 250 251 252 251 251 250 250 251 252 253 254 256 259 260 260 262 264 265 265 265 266 268 270 270 272 273 275 276 277 279 282 285 284 282 279 278 279 279 280 281 280 280 280 281 283 285 286
281 281 282 281 281 280 279 279 277 276 275 273 271 269 266 263 261 259 255 251 248 247 247 245 243 244 245 243 241 240 240 240 241 243 245 246 246 246 246 247 248 249 251 253 254 255 256 258 259 260 262 263 263 263 263 262 262 263 266 269 270 269 270 272 273 274 276 280 283 284 284 283 281 279 279 279 279 280 280 280 279 279 281 283 284
283 283 283 282 282 281 281 280 278 276 275 272 270 268 266 264 261 258 255 252 248 245 245 245 244 243 243 243 241 239 240 240 240 242 244 246 247 246 244 245 247 250 254 256 257 258 260 261 261 261 263 264 265 264 262 261 261 263 266 269 270 269 268 269 273 275 276 279 282 282 282 282 281 280 280 279 279 279 279 279 279 279 280 281 282
286 285 285 284 283 282 281 280 278 276 275 272 270 268 266 264 261 258 255 252 248 245 243 244 244 242 242 242 241 239 238 239 240 241 243 244 246 246 245 246 248 251 254 255 256 258 257 256 255 255 257 260 262 262 261 262 264 265 265 268 270 269 268 268 273 276 275 276 279 280 281 281 281 281 281 280 278 278 279 278 278 278 279 280 280
288 287 286 285 283 282 281 280 279 278 276 273 270 267 265 263 261 258 255 252 249 245 242 242 243 242 241 241 241 239 237 237 238 240 241 243 244 246 247 248 247 249 252 254 254 256 256 256 255 253 254 256 259 260 260 262 265 266 266 267 267 267 268 269 272 274 273 274 276 277 277 278 279 280 281 279 278 278 278 277 276 276 277 278 279
288 287 286 286 284 283 282 281 280 278 276 273 270 267 264 262 260 257 254 252 248 245 242 240 241 241 240 239 240 240 237 235 236 238 240 242 243 245 247 247 246 246 250 253 253 254 256 256 255 253 254 256 258 259 262 264 265 264 264 266 267 266 267 269 271 272 271 272 274 274 274 275 276 277 279 278 277 278 277 275 274 274 276 277 279
289 289 288 287 286 285 283 282 280 277 275 272 270 268 265 262 260 257 254 251 248 244 241 239 239 239 239 238 238 239 237 235 234 237 239 241 243 244 244 246 247 246 248 253 254 253 253 254 255 255 256 258 259 261 264 266 264 261 261 264 266 266 266 267 270 271 270 271 272 272 273 275 275 275 276 276 276 277 275 273 272 273 275 277 279
291 290 289 288 287 285 284 281 279 276 274 272 270 268 266 264 261 257 254 251 248 244 241 239 237 237 237 237 237 238 237 234 233 235 238 240 242 243 242 245 247 248 249 253 254 253 253 253 255 256 258 260 262 263 265 265 263 260 260 262 266 268 267 266 268 270 270 269 270 272 274 274 274 272 272 272 274 275 273 272 272 273 276 280 281
Height
5907 5907 5907 5908 5907 5907 5907 5908 5908 5908 5909 5909 5910 5911 5911 5911 5911 5912 5912 5912 5913 5913 5913 5913 5913 5914 5914 5914 5915 5915 5914 5914 5914 5915 5915 5916 5916 5916 5916 5916 5915 5915 5915 5915 5915 5916 5915 5915 5915 5915 5915 5915 5915 5915 5915 5915 5915 5915 5915 5915 5915 5915 5915 5915 5915 5915 5915 5915 5915 5915 5915 5915 5915 5915 5915 5915 5915 5915 5915 5915 5914 5914 5914 5913 5913
5906 5906 5907 5907 5907 5906 5906 5907 5907 5907 5908 5908 5909 5910 5910 5910 5911 5911 5911 5911 5912 5912 5912 5913 5913 5913 5913 5914 5914 5914 5914 5914 5914 5915 5915 5915 5916 5916 5916 5916 5916 5916 5916 5915 5915 5915 5915 5915 5915 5915 5915 5915 5915 5915 5915 5915 5915 5915 5915 5915 5915 5915 5915 5915 5915 5915 5915 5914 5914 5914 5914 5914 5914 5914 5914 5914 5914 5914 5914 5914 5913 5913 5912 5912 5912
5906 5906 5906 5906 5906 5906 5906 5906 5906 5906 5907 5907 5908 5908 5909 5909 5910 5910 5910 5910 5911 5911 5911 5912 5912 5912 5912 5913 5913 5913 5914 5914 5914 5915 5915 5915 5915 5916 5916 5916 5916 5916 5916 5915 5915 5914 5914 5915 5915 5915 5915 5914 5914 5914 5914 5914 5914 5914 5914 5914 5914 5914 5914 5914 5914 5914 5914 5913 5913 5913 5913 5913 5913 5913 5913 5913 5913 5913 5913 5912 5912 5911 5911 5911 5910
5905 5905 5905 5905 5905 5905 5905 5905 5905 5905 5906 5906 5907 5907 5908 5908 5908 5909 5909 5910 5910 5910 5910 5911 5911 5911 5911 5912 5912 5913 5913 5913 5913 5914 5914 5914 5915 5915 5916 5916 5916 5916 5916 5915 5915 5914 5914 5914 5914 5914 5914 5914 5914 5914 5914 5914 5914 5914 5914 5914 5914 5913 5913 5913 5913 5913 5913 5913 5912 5912 5912 5912 5912 5912 5912 5912 5911 5911 5911 5911 5910 5910 5910 5909 5909
5904 5904 5904 5904 5904 5904 5904 5904 5904 5904 5904 5905 5905 5906 5906 5907 5907 5908 5908 5908 5909 5909 5909 5910 5910 5910 5910 5911 5911 5912 5912 5912 5913 5913 5913 5914 5914 5914 5915 5916 5916 5916 5915 5915 5914 5914 5913 5913 5913 5913 5913 5913 5913 5913 5913 5913 5913 5913 5913 5913 5912 5912 5912 5912 5912 5912 5912 5911 5911 5911 5911 5911 5911 5911 5911 5911 5910 5910 5910 5909 5909 5908 5908 5908 5907
5903 5903 5903 5903 5902 5902 5902 5903 5903 5903 5903 5904 5904 5905 5905 5905 5906 5906 5907 5907 5907 5908 5908 5908 5909 5909 5909 5910 5910 5911 5911 5911 5912 5912 5913 5913 5913 5913 5914 5914 5915 5915 5915 5914 5914 5913 5913 5912 5912 5912 5912 5913 5913 5913 5912 5912 5912 5912 5912 5911 5911 5911 5911 5911 5911 5911 5910 5910 5910 5910 5910 5910 5910 5909 5910 5909 5909 5909 5908 5908 5907 5907 5906 5906 5905
5903 5903 5902 5902 5902 5901 5901 5902 5902 5902 5902 5903 5903 5903 5904 5904 5904 5905 5905 5906 5906 5906 5907 5907 5907 5908 5908 5909 5909 5909 5910 5910 5911 5911 5912 5912 5913 5913 5913 5913 5913 5914 5914 5914 5913 5913 5913 5912 5912 5912 5912 5912 5912 5912 5912 5911 5911 5911 5911 5910 5910 5910 5910 5910 5909 5909 5909 5909 5909 5909 5909 5909 5909 5908 5908 5908 5908 5907 5907 5906 5906 5905 5904 5903 5903
5902 5902 5902 5901 5901 5901 5901 5901 5901 5901 5901 5902 5902 5902 5902 5902 5903 5903 5904 5904 5905 5905 5905 5906 5906 5907 5907 5907 5908 5908 5909 5909 5910 5910 5910 5911 5911 5912 5912 5912 5912 5912 5912 5912 5913 5912 5912 5911 5911 5911 5911 5911 5911 5911 5910 5910 5910 5910 5910 5910 5909 5909 5909 5909 5909 5909 5908 5908 5908 5908 5908 5908 5907 5907 5907 5907 5907 5906 5906 5905 5903 5903 5902 5901 5901
5901 5900 5900 5900 5900 5900 5900 5900 5900 5900 5900 5900 5900 5900 5901 5901 5901 5902 5902 5903 5903 5904 5904 5904 5905 5905 5906 5906 5906 5907 5908 5908 5908 5909 5909 5909 5909 5910 5911 5911 5911 5911 5911 5911 5911 5912 5912 5911 5910 5910 5910 5910 5910 5910 5910 5910 5910 5910 5909 5909 5909 5909 5909 5908 5908 5908 5908 5908 5908 5908 5907 5907 5906 5906 5906 5906 5905 5905 5904 5903 5902 5901 5900 5899 5899
5898 5898 5898 5898 5898 5899 5899 5898 5899 5899 5899 5899 5899 5899 5899 5899 5899 5899 5900 5901 5901 5902 5903 5903 5903 5904 5904 5904 5905 5905 5906 5906 5907 5907 5908 5908 5908 5908 5909 5909 5909 5910 5909 5910 5910 5911 5911 5910 5910 5909 5909 5908 5909 5909 5909 5909 5909 5909 5908 5908 5908 5908 5908 5908 5907 5907 5907 5907 5906 5906 5906 5905 5905 5905 5905 5905 5904 5904 5903 5901 5900 5899 5898 5898 5897
5896 5896 5896 5896 5896 5897 5897 5897 5897 5897 5897 5897 5897 5897 5897 5897 5897 5897 5898 5899 5899 5900 5901 5901 5902 5902 5903 5903 5903 5904 5904 5905 5905 5905 5906 5906 5906 5907 5907 5907 5908 5908 5908 5908 5908 5909 5909 5909 5909 5908 5908 5907 5907 5907 5908 5908 5908 5908 5908 5907 5907 5907 5907 5906 5906 5906 5905 5905 5905 5905 5904 5904 5904 5904 5904 5903 5903 5902 5901 5900 5899 5898 5897 5896 5895
5894 5894 5894 5894 5894 5894 5895 5895 5895 5895 5895 5895 5895 5895 5895 5895 5895 5896 5896 5896 5897 5898 5899 5899 5900 5901 5901 5901 5902 5903 5903 5904 5904 5903 5903 5904 5904 5905 5906 5906 5906 5907 5907 5907 5907 5907 5908 5908 5908 5907 5907 5906 5906 5906 5906 5907 5907 5907 5907 5907 5907 5906 5906 5905 5904 5904 5904 5903 5903 5903 5903 5902 5902 5902 5902 5902 5901 5900 5899 5898 5897 5896 5895 5894 5893
5892 5892 5892 5892 5892 5892 5892 5892 5893 5893 5893 5893 5892 5892 5893 5893 5893 5894 5894 5895 5895 5895 5896 5898 5898 5898 5899 5899 5900 5900 5901 5902 5902 5902 5902 5902 5902 5903 5904 5905 5905 5905 5905 5906 5906 5906 5907 5907 5907 5906 5906 5906 5905 5905 5905 5906 5906 5906 5906 5906 5906 5905 5904 5904 5903 5902 5902 5902 5902 5902 5901 5901 5900 5900 5900 5899 5899 5898 5897 5896 5895 5894 5893 5892 5891
5891 5891 5891 5891 5890 5890 5890 5890 5890 5890 5891 5891 5890 5890 5890 5890 5891 5891 5892 5893 5893 5893 5894 5895 5896 5896 5897 5898 5898 5898 5898 5899 5900 5900 5900 5901 5901 5901 5902 5903 5903 5904 5904 5904 5905 5905 5905 5905 5905 5905 5905 5904 5904 5904 5904 5905 5905 5905 5905 5905 5905 5904 5903 5903 5902 5901 5901 5901 5901 5900 5900 5899 5899 5898 5898 5897 5897 5896 5895 5894 5893 5892 5891 5890 5889
5889 5889 5889 5888 5887 5886 5887 5888 5888 5889 5889 5889 5889 5889 5888 5888 5889 5889 5890 5891 5891 5891 5891 5893 5894 5894 5895 5896 5896 5896 5896 5896 5897 5898 5899 5899 5899 5900 5900 5901 5902 5902 5903 5903 5903 5903 5904 5904 5904 5903 5903 5903 5904 5903 5903 5904 5904 5904 5904 5904 5903 5903 5903 5902 5901 5901 5900 5900 5899 5898 5898 5897 5897 5896 5896 5896 5895 5894 5893 5892 5891 5890 5889 5888 5887
5886 5886 5886 5885 5885 5886 5888 5888 5887 5887 5888 5889 5888 5888 5887 5887 5887 5887 5887 5888 5889 5889 5889 5891 5892 5892 5893 5894 5894 5895 5895 5894 5895 5896 5896 5897 5898 5898 5898 5899 5900 5901 5901 5901 5902 5902 5902 5902 5902 5902 5901 5902 5902 5902 5902 5902 5902 5902 5903 5903 5903 5903 5902 5902 5901 5900 5899 5898 5897 5897 5897 5896 5895 5894 5894 5894 5893 5892 5891 5891 5889 5888 5887 5886 5886
5884 5883 5883 5884 5885 5886 5886 5885 5884 5884 5885 5886 5887 5887 5886 5886 5885 5886 5886 5886 5886 5887 5887 5888 5889 5889 5891 5891 5892 5893 5893 5893 5893 5893 5894 5895 5896 5896 5896 5897 5898 5899 5899 5899 5900 5900 5901 5901 5901 5900 5900 5900 5901 5901 5901 5901 5901 5901 5901 5901 5902 5902 5902 5901 5900 5899 5898 5896 5896 5896 5895 5894 5893 5892 5892 5891 5890 5890 5890 5889 5888 5887 5885 5885 5884
5881 5879 5879 5881 5882 5882 5882 5882 5882 5881 5882 5883 5884 5884 5884 5884 5884 5884 5884 5884 5884 5885 5885 5885 5886 5887 5888 5889 5889 5890 5890 5891 5891 5891 5891 5892 5893 5894 5894 5895 5896 5897 5897 5897 5897 5898 5899 5899 5899 5899 5898 5898 5899 5899 5899 5899 5899 5899 5900 5900 5900 5900 5900 5899 5899 5898 5896 5895 5894 5894 5893 5893 5892 5891 5890 5889 5888 5888 5887 5887 5886 5885 5884 5883 5883
5877 5876 5876 5878 5879 5879 5880 5880 5879 5879 5879 5879 5880 5880 5881 5881 5881 5882 5882 5882 5882 5883 5882 5882 5883 5885 5885 5886 5887 5887 5888 5888 5889 5889 5889 5890 5891 5892 5892 5893 5894 5895 5896 5896 5896 5896 5896 5897 5897 5897 5897 5897 5897 5897 5897 5897 5897 5898 5898 5898 5899 5899 5898 5898 5897 5896 5894 5893 5893 5892 5891 5891 5890 5889 5888 5887 5886 5886 5885 5885 5885 5884 5883 5882 5881
5874 5874 5876 5876 5876 5877 5877 5877 5878 5877 5877 5877 5877 5877 5877 5877 5878 5879 5880 5880 5880 5880 5880 5879 5881 5882 5883 5884 5885 5885 5885 5886 5887 5887 5888 5888 5889 5889 5890 5891 5892 5893 5894 5894 5894 5894 5894 5894 5895 5895 5895 5895 5895 5895 5895 5895 5895 5896 5896 5896 5897 5897 5896 5896 5895 5894 5893 5892 5891 5890 5889 5889 5888 5888 5887 5886 5885 5884 5884 5883 5883 5882 5881 5880 5880
5870 5872 5875 5874 5873 5874 5874 5874 5875 5874 5874 5875 5874 5874 5874 5874 5874 5875 5876 5877 5878 5878 5878 5877 5878 5879 5880 5881 5882 5882 5883 5884 5884 5885 5886 5886 5886 5887 5888 5889 5890 5891 5891 5892 5892 5892 5892 5892 5892 5893 5893 5893 5893 5893 5893 5893 5894 5894 5894 5894 5895 5895 5894 5894 5893 5892 5891 5891 5890 5889 5888 5887 5887 5886 5886 5885 5884 5883 5882 5882 5881 5881 5880 5879 5879
5867 5868 5872 5872 5870 5870 5870 5870 5871 5871 5871 5871 5871 5871 5872 5872 5872 5872 5873 5875 5876 5876 5876 5875 5875 5876 5877 5879 5880 5880 5880 5881 5882 5882 5883 5883 5883 5884 5885 5887 5888 5889 5889 5889 5889 5889 5889 5890 5890 5890 5891 5891 5891 5891 5891 5891 5891 5892 5892 5892 5892 5892 5892 5892 5891 5891 5890 5889 5888 5888 5887 5886 5885 5884 5884 5883 5883 5882 5881 5880 5879 5879 5879 5878 5877
5866 5864 5866 5868 5868 5867 5866 5866 5867 5867 5867 5868 5869 5870 5870 5869 5869 5869 5870 5871 5872 5873 5873 5873 5872 5873 5874 5876 5877 5877 5877 5878 5879 5879 5880 5881 5881 5881 5883 5885 5886 5887 5887 5887 5887 5888 5887 5888 5888 5888 5888 5888 5889 5889 5889 5889 5889 5890 5890 5891 5890 5890 5890 5890 5889 5889 5888 5888 5887 5886 5886 5885 5884 5883 5882 5882 5881 5880 5879 5878 5877 5877 5877 5876 5875
5865 5863 5862 5863 5864 5865 5864 5863 5863 5863 5864 5865 5866 5865 5864 5864 5864 5864 5866 5867 5868 5868 5869 5869 5869 5870 5871 5872 5873 5874 5874 5875 5876 5876 5878 5878 5879 5879 5880 5882 5884 5885 5884 5885 5886 5886 5886 5886 5885 5885 5885 5886 5886 5886 5887 5887 5887 5888 5888 5888 5888 5888 5888 5888 5887 5887 5886 5886 5885 5884 5884 5883 5882 5882 5881 5880 5879 5878 5877 5876 5875 5875 5875 5874 5874
5863 5862 5860 5859 5860 5861 5861 5861 5860 5859 5860 5861 5861 5859 5859 5859 5859 5860 5861 5862 5863 5863 5864 5865 5865 5866 5867 5868 5870 5871 5872 5872 5872 5873 5875 5876 5876 5877 5877 5879 5881 5883 5883 5883 5884 5884 5884 5884 5883 5883 5883 5883 5883 5884 5884 5885 5885 5886 5886 5886 5886 5886 5885 5885 5885 5884 5884 5883 5883 5882 5881 5881 5880 5879 5879 5878 5877 5876 5875 5875 5874 5873 5873 5872 5872
5861 5859 5858 5856 5856 5856 5857 5857 5857 5856 5857 5858 5857 5856 5856 5856 5855 5857 5858 5859 5859 5860 5861 5862 5862 5863 5864 5865 5867 5868 5869 5869 5869 5870 5871 5872 5874 5875 5875 5875 5878 5880 5881 5882 5882 5882 5882 5882 5881 5881 5881 5881 5881 5881 5882 5882 5883 5883 5883 5883 5883 5883 5883 5883 5882 5882 5881 5881 5880 5880 5879 5878 5877 5877 5876 5876 5875 5875 5874 5873 5873 5872 5871 5871 5870
5858 5856 5855 5854 5853 5852 5851 5852 5852 5852 5852 5854 5853 5853 5851 5851 5854 5856 5857 5856 5857 5859 5861 5861 5862 5862 5862 5863 5864 5865 5866 5866 5866 5867 5868 5869 5870 5872 5872 5872 5874 5877 5878 5879 5880 5880 5880 5879 5879 5879 5879 5879 5879 5879 5879 5880 5880 5880 5881 5881 5881 5881 5880 5880 5880 5879 5879 5879 5878 5878 5877 5876 5875 5874 5874 5873 5873 5873 5872 5872 5871 5870 5869 5869 5868
5854 5853 5852 5851 5849 5849 5848 5847 5847 5846 5847 5847 5847 5847 5845 5847 5853 5855 5853 5852 5854 5857 5859 5859 5859 5860 5860 5860 5861 5863 5864 5864 5864 5864 5865 5866 5867 5868 5869 5870 5871 5873 5875 5876 5877 5877 5877 5877 5877 5877 5876 5876 5876 5876 5877 5877 5877 5878 5878 5878 5878 5878 5878 5878 5877 5877 5877 5876 5876 5876 5875 5874 5873 5872 5871 5870 5870 5870 5869 5869 5868 5868 5867 5867 5866
5849 5849 5848 5847 5846 5845 5844 5843 5843 5842 5842 5842 5842 5841 5840 5844 5849 5849 5847 5846 5847 5850 5852 5852 5854 5854 5855 5856 5857 5859 5861 5861 5861 5862 5862 5862 5863 5865 5866 5867 5868 5870 5871 5872 5874 5874 5874 5874 5874 5874 5873 5873 5873 5873 5874 5874 5875 5875 5875 5875 5876 5876 5876 5875 5875 5874 5874 5874 5874 5873 5872 5871 5871 5870 5869 5868 5868 5867 5867 5866 5866 5865 5865 5864 5864
5845 5845 5844 5843 5842 5841 5841 5840 5839 5838 5838 5838 5837 5836 5837 5840 5842 5842 5842 5841 5842 5845 5846 5847 5849 5849 5850 5851 5852 5854 5856 5857 5858 5858 5859 5859 5860 5861 5862 5863 5865 5866 5867 5869 5870 5871 5870 5870 5870 5870 5870 5870 5871 5871 5871 5872 5872 5872 5872 5872 5873 5873 5873 5872 5871 5871 5871 5871 5870 5870 5869 5869 5868 5867 5866 5866 5866 5865 5865 5864 5863 5863 5862 5862 5861
5841 5841 5840 5839 5838 5837 5837 5836 5835 5835 5834 5834 5833 5833 5834 5835 5836 5837 5838 5838 5839 5841 5842 5843 5845 5845 5846 5847 5848 5849 5851 5852 5853 5855 5855 5856 5857 5858 5859 5860 5861 5862 5863 5865 5867 5867 5866 5866 5866 5866 5867 5868 5868 5869 5869 5869 5869 5869 5870 5870 5870 5870 5869 5868 5868 5868 5868 5868 5868 5867 5866 5866 5865 5865 5864 5863 5863 5863 5862 5862 5861 5860 5859 5859 5859
5837 5836 5836 5835 5834 5833 5832 5832 5831 5830 5830 5830 5829 5829 5830 5830 5831 5832 5833 5833 5834 5836 5837 5839 5841 5842 5843 5844 5845 5846 5846 5847 5848 5850 5852 5853 5854 5854 5855 5856 5857 5859 5859 5860 5863 5864 5862 5862 5862 5862 5863 5864 5865 5866 5866 5866 5866 5866 5867 5867 5867 5867 5866 5865 5865 5865 5865 5865 5865 5864 5863 5863 5862 5862 5861 5860 5860 5859 5859 5858 5858 5857 5856 5856 5856
5833 5832 5831 5831 5830 5829 5827 5827 5826 5826 5825 5825 5824 5825 5825 5825 5826 5827 5827 5828 5830 5832 5833 5835 5836 5837 5839 5840 5841 5843 5843 5843 5844 5845 5847 5848 5849 5850 5851 5852 5853 5854 5855 5856 5858 5859 5858 5858 5858 5858 5859 5861 5862 5862 5863 5863 5863 5863 5864 5864 5864 5863 5863 5863 5862 5862 5862 5862 5862 5861 5861 5860 5859 5858 5858 5857 5857 5856 5856 5855 5855 5854 5853 5853 5853
5827 5826 5826 5825 5825 5824 5823 5822 5821 5821 5820 5819 5819 5819 5819 5820 5821 5822 5822 5823 5825 5827 5828 5830 5831 5832 5833 5834 5836 5837 5838 5839 5840 5841 5842 5843 5844 5845 5847 5848 5849 5850 5851 5852 5853 5855 5855 5854 5854 5855 5856 5858 5859 5859 5859 5860 5860 5860 5860 5860 5860 5859 5859 5859 5859 5859 5858 5858 5858 5858 5857 5857 5856 5855 5855 5854 5854 5853 5853 5852 5852 5851 5850 5850 5850
5821 5821 5820 5820 5819 5819 5818 5817 5816 5815 5815 5814 5814 5814 5814 5814 5815 5817 5817 5818 5820 5821 5822 5824 5826 5826 5827 5829 5831 5831 5832 5833 5835 5836 5837 5838 5839 5840 5842 5843 5845 5846 5847 5847 5849 5851 5852 5850 5850 5852 5853 5855 5856 5856 5856 5856 5857 5857 5857 5857 5856 5856 5856 5856 5855 5855 5855 5855 5854 5854 5854 5853 5853 5852 5851 5850 5850 5850 5850 5849 5848 5848 5847 5847 5846
5816 5815 5814 5814 5813 5813 5812 5812 5811 5810 5810 5809 5808 5808 5808 5808 5809 5811 5812 5812 5814 5815 5816 5818 5820 5821 5822 5824 5826 5827 5826 5828 5830 5831 5833 5834 5834 5835 5837 5839 5840 5842 5842 5843 5845 5847 5848 5848 5848 5849 5850 5851 5852 5853 5853 5853 5853 5853 5853 5853 5853 5853 5852 5852 5852 5851 5851 5851 5850 5850 5850 5849 5849 5848 5847 5847 5846 5846 5846 5846 5845 5844 5844 5843 5843
5810 5809 5809 5808 5807 5806 5806 5805 5805 5804 5804 5803 5803 5802 5802 5802 5803 5805 5806 5807 5808 5809 5811 5812 5813 5815 5817 5819 5821 5822 5822 5823 5825 5826 5828 5829 5830 5831 5832 5834 5836 5837 5838 5839 5841 5843 5844 5846 5846 5847 5848 5849 5849 5849 5849 5849 5849 5849 5849 5849 5850 5849 5848 5848 5848 5848 5847 5846 5846 5846 5845 5845 5845 5844 5844 5843 5843 5843 5842 5842 5842 5841 5840 5840 5839
5804 5804 5803 5802 5801 5800 5800 5799 5799 5798 5798 5797 5797 5796 5796 5796 5797 5798 5799 5800 5802 5803 5804 5806 5807 5808 5811 5813 5815 5816 5817 5818 5820 5822 5823 5824 5825 5827 5828 5830 5831 5832 5833 5835 5837 5839 5841 5843 5843 5844 5846 5846 5847 5847 5846 5846 5846 5846 5846 5846 5846 5845 5844 5845 5845 5845 5843 5842 5842 5842 5841 5841 5841 5841 5840 5840 5840 5839 5839 5838 5838 5838 5837 5836 5836
5798 5797 5796 5795 5795 5794 5793 5793 5792 5792 5791 5791 5790 5789 5789 5789 5790 5791 5792 5793 5795 5796 5798 5799 5800 5802 5804 5807 5809 5810 5812 5814 5816 5817 5818 5820 5821 5822 5824 5825 5826 5827 5829 5831 5833 5835 5837 5839 5840 5841 5842 5843 5843 5843 5843 5843 5843 5843 5842 5841 5841 5842 5842 5842 5842 5841 5840 5839 5838 5839 5838 5837 5838 5838 5837 5837 5836 5836 5835 5835 5835 5834 5834 5833 5832
5791 5790 5789 5788 5788 5787 5787 5786 5785 5784 5784 5784 5784 5783 5782 5783 5784 5784 5785 5786 5788 5790 5791 5792 5793 5795 5798 5801 5803 5805 5807 5809 5811 5812 5813 5815 5816 5818 5820 5821 5822 5823 5825 5827 5829 5830 5832 5834 5835 5837 5837 5838 5839 5839 5839 5839 5840 5839 5838 5838 5838 5839 5838 5838 5838 5838 5837 5836 5835 5835 5834 5834 5834 5834 5834 5833 5833 5832 5832 5831 5831 5831 5830 5830 5829
5784 5783 5782 5782 5781 5781 5780 5779 5778 5777 5777 5777 5777 5776 5775 5775 5776 5777 5778 5779 5781 5782 5784 5786 5787 5789 5792 5794 5797 5799 5801 5803 5805 5807 5808 5809 5811 5814 5816 5817 5818 5819 5821 5823 5825 5826 5828 5829 5831 5832 5832 5833 5834 5835 5835 5836 5836 5835 5834 5834 5835 5834 5834 5834 5834 5834 5833 5832 5831 5831 5830 5830 5830 5830 5830 5830 5829 5829 5828 5827 5827 5827 5826 5826 5825
5777 5776 5775 5775 5774 5773 5772 5771 5771 5770 5770 5770 5769 5768 5767 5768 5769 5770 5771 5773 5774 5775 5777 5779 5781 5783 5785 5788 5791 5794 5796 5797 5800 5802 5804 5805 5807 5809 5811 5812 5814 5815 5817 5818 5819 5821 5823 5825 5826 5827 5828 5829 5830 5831 5831 5831 5831 5830 5830 5830 5830 5829 5829 5830 5830 5830 5829 5828 5827 5827 5827 5826 5826 5826 5826 5825 5825 5825 5824 5824 5823 5823 5822 5822 5821
5770 5769 5768 5767 5766 5765 5764 5764 5763 5762 5762 5762 5761 5760 5760 5760 5761 5763 5764 5766 5767 5768 5770 5773 5775 5777 5779 5781 5785 5787 5790 5792 5795 5797 5799 5800 5803 5805 5807 5808 5809 5811 5812 5813 5814 5815 5817 5819 5820 5822 5823 5824 5825 5825 5825 5825 5825 5825 5825 5824 5824 5825 5825 5825 5825 5825 5824 5823 5823 5823 5823 5822 5821 5821 5821 5821 5820 5820 5820 5820 5819 5818 5818 5817 5816
5763 5762 5761 5759 5758 5757 5756 5756 5756 5755 5755 5755 5753 5752 5752 5752 5752 5754 5757 5759 5760 5762 5764 5766 5769 5770 5772 5775 5778 5781 5784 5787 5789 5791 5792 5795 5798 5801 5802 5802 5803 5804 5805 5807 5809 5810 5811 5813 5815 5817 5818 5819 5819 5819 5819 5819 5818 5818 5819 5819 5820 5820 5820 5819 5819 5819 5818 5819 5819 5819 5818 5817 5816 5816 5816 5815 5815 5815 5815 5815 5815 5814 5813 5812 5811
5756 5755 5754 5752 5751 5750 5748 5748 5748 5747 5747 5747 5745 5744 5744 5744 5744 5745 5748 5751 5753 5755 5757 5759 5762 5764 5766 5769 5771 5775 5778 5781 5783 5785 5787 5790 5793 5794 5795 5795 5795 5798 5800 5803 5805 5806 5808 5810 5811 5813 5815 5814 5814 5814 5814 5812 5811 5812 5814 5815 5816 5815 5815 5815 5814 5813 5813 5814 5815 5814 5813 5812 5811 5811 5810 5810 5810 5810 5810 5810 5810 5809 5809 5808 5806
5749 5748 5747 5745 5744 5742 5740 5740 5739 5740 5740 5739 5737 5736 5736 5736 5736 5737 5740 5743 5746 5748 5750 5752 5755 5757 5760 5762 5765 5768 5771 5774 5777 5780 5783 5785 5786 5786 5786 5788 5791 5795 5797 5799 5800 5802 5804 5805 5807 5809 5809 5808 5809 5809 5807 5805 5806 5808 5810 5810 5810 5810 5810 5810 5809 5809 5809 5809 5808 5808 5807 5806 5805 5805 5805 5805 5805 5804 5805 5805 5805 5804 5804 5803 5801
5742 5741 5739 5738 5736 5735 5733 5732 5731 5732 5732 5731 5729 5728 5728 5728 5728 5729 5732 5736 5739 5741 5743 5745 5748 5751 5754 5756 5759 5762 5764 5767 5771 5775 5777 5778 5777 5777 5779 5784 5790 5792 5792 5793 5795 5796 5797 5798 5800 5801 5802 5801 5802 5803 5802 5801 5802 5804 5805 5805 5804 5804 5804 5805 5805 5804 5804 5803 5802 5802 5802 5801 5800 5799 5799 5799 5799 5798 5799 5799 5799 5799 5798 5797 5796
5736 5734 5732 5731 5729 5727 5726 5724 5723 5724 5724 5723 5722 5721 5721 5720 5720 5722 5725 5728 5731 5735 5737 5739 5741 5744 5747 5750 5753 5755 5757 5761 5766 5768 5769 5768 5768 5770 5775 5781 5785 5786 5786 5788 5790 5790 5791 5793 5794 5795 5794 5794 5795 5796 5796 5797 5797 5799 5800 5800 5799 5799 5799 5799 5799 5799 5799 5797 5797 5797 5796 5795 5794 5794 5793 5793 5793 5793 5793 5794 5793 5793 5793 5792 5791
5729 5726 5725 5723 5722 5720 5719 5717 5716 5716 5716 5716 5714 5714 5714 5713 5713 5715 5718 5721 5724 5728 5730 5732 5734 5737 5740 5743 5746 5748 5751 5755 5759 5761 5760 5759 5761 5766 5772 5776 5778 5780 5782 5783 5784 5785 5786 5786 5787 5788 5788 5789 5789 5789 5790 5792 5793 5794 5794 5794 5794 5794 5793 5793 5793 5794 5793 5792 5792 5792 5791 5790 5789 5789 5788 5788 5788 5788 5788 5788 5788 5787 5787 5786 5785
5722 5720 5718 5716 5715 5713 5711 5710 5709 5708 5709 5709 5708 5707 5707 5706 5706 5708 5711 5714 5717 5721 5724 5726 5727 5730 5733 5736 5739 5741 5745 5750 5753 5753 5752 5752 5754 5760 5767 5770 5771 5774 5778 5778 5778 5778 5779 5778 5779 5781 5782 5782 5783 5784 5784 5787 5787 5787 5787 5788 5788 5787 5786 5787 5788 5788 5787 5786 5787 5786 5785 5784 5784 5783 5783 5783 5783 5782 5782 5782 5781 5781 5780 5780 5779
5715 5714 5711 5710 5708 5707 5704 5703 5702 5701 5702 5703 5702 5701 5701 5700 5699 5701 5704 5707 5710 5714 5717 5719 5721 5723 5726 5729 5732 5735 5739 5743 5745 5744 5745 5746 5748 5754 5761 5764 5765 5770 5774 5772 5770 5771 5771 5772 5773 5774 5775 5776 5777 5778 5778 5779 5780 5780 5781 5781 5782 5781 5782 5782 5782 5781 5781 5782 5782 5780 5779 5778 5777 5777 5777 5777 5777 5777 5776 5775 5775 5775 5775 5774 5773